Wind_Speed
28 29 28 28 28 27 26 26 24 24 24 24 25 25 25 24 23 23 22 21 19 16 15 14 14 16 18 20 22 22 22 21 21 21 21 22 21 19 19 19 19 19 18 18 19 18 18 18 19 19 20 20 22 23 23 21 20 18 16 16 18 20 20
26 27 26 25 27 28 27 26 23 22 23 22 23 24 24 23 22 22 22 20 18 16 15 13 13 13 14 17 19 21 21 21 20 20 20 20 19 18 18 18 18 18 17 17 17 17 17 17 18 19 20 21 21 22 24 24 23 21 17 16 16 18 20
26 26 24 22 23 24 24 24 23 22 22 22 22 23 23 21 21 21 21 20 18 17 16 15 13 13 13 15 17 19 20 21 20 20 20 19 17 16 17 17 17 17 17 17 17 16 16 17 18 19 20 21 21 22 23 25 26 24 20 18 17 17 19
25 24 22 21 21 21 21 22 22 22 22 22 22 22 22 20 20 21 21 20 19 18 18 16 14 13 14 15 16 17 19 20 20 20 20 18 16 16 16 16 16 16 15 14 14 15 15 15 16 17 18 20 22 23 23 23 24 24 22 20 20 19 19
23 21 21 22 21 20 19 19 19 20 21 20 20 20 19 18 19 20 20 19 19 19 17 16 15 14 14 14 15 16 17 18 19 20 19 18 16 15 15 16 16 14 12 12 12 12 13 14 14 15 16 17 19 21 21 21 21 22 21 21 22 22 21
22 21 22 22 21 18 17 16 16 17 16 16 16 17 17 17 18 20 20 19 19 19 18 17 17 15 15 14 14 15 16 17 19 19 18 17 16 16 15 16 15 12 11 10 10 11 13 13 13 13 14 15 16 17 18 19 20 20 20 20 22 23 23
23 23 22 20 18 16 15 15 15 15 14 13 14 15 15 17 17 18 18 18 18 18 18 18 17 15 15 14 14 14 15 17 17 18 17 17 17 16 16 16 15 12 11 11 11 12 12 12 12 12 13 14 15 16 16 18 19 19 18 18 20 23 25
22 22 21 18 16 15 15 15 15 15 14 14 15 15 15 16 16 16 16 16 16 15 15 15 13 13 13 14 14 13 14 14 15 16 16 17 18 17 16 16 15 14 14 14 13 13 12 12 11 11 13 15 16 16 16 16 17 17 18 19 20 22 24
20 19 18 16 15 15 15 15 15 15 14 14 15 14 14 15 15 15 14 13 12 11 10 10 9 10 12 13 13 13 13 14 15 16 16 17 18 18 17 16 16 16 17 15 13 12 12 12 13 13 14 16 17 17 16 16 16 16 18 19 20 21 22
20 18 16 14 15 15 16 17 16 16 15 14 14 13 13 13 13 13 12 11 9 8 7 7 7 8 10 12 13 13 14 15 16 16 17 17 17 17 16 16 17 18 17 15 13 12 11 13 14 16 16 16 17 18 18 17 17 17 18 19 20 20 20
20 19 17 15 16 17 17 18 18 18 15 13 14 14 13 12 12 12 11 9 7 7 7 5 5 7 9 10 12 13 13 13 14 15 15 15 15 15 15 15 16 17 17 15 13 12 12 13 15 17 17 16 16 18 18 19 19 19 19 19 19 19 19
21 21 20 19 19 19 18 18 19 18 15 13 14 14 14 13 11 10 10 9 7 7 6 5 6 7 8 9 10 11 11 11 11 12 13 14 14 14 15 16 17 17 17 15 14 13 13 14 16 18 17 15 16 19 19 19 19 20 21 20 19 19 18
22 22 22 21 21 20 18 18 18 17 15 13 14 14 13 12 11 10 10 9 9 9 7 7 8 8 8 8 9 9 9 8 8 9 11 12 13 14 15 16 17 17 16 16 14 13 14 14 17 19 17 15 17 19 20 20 19 19 21 22 21 21 20
22 23 23 24 24 21 19 18 18 16 15 14 14 13 12 12 12 11 11 11 11 10 9 9 8 8 8 9 8 8 8 7 8 9 9 10 10 11 12 13 15 14 14 14 13 13 15 16 18 19 17 16 17 18 18 19 19 18 19 21 22 23 23
24 24 25 27 27 24 21 20 19 18 17 17 16 14 13 14 14 13 13 12 11 10 9 9 8 8 8 8 8 7 8 8 9 10 10 10 9 9 10 12 12 12 12 11 11 13 15 16 17 18 18 17 16 16 16 16 16 17 17 17 19 22 23
26 26 26 28 27 26 24 23 22 21 20 20 18 17 16 17 16 15 14 13 11 10 10 9 9 10 9 9 9 9 10 10 11 11 12 11 11 11 12 12 12 12 12 12 13 14 15 14 15 17 19 19 19 18 17 16 15 15 15 16 17 20 23
30 28 27 27 26 25 24 23 23 22 21 21 19 18 18 18 17 15 14 13 11 11 10 10 10 11 11 11 11 11 12 12 13 13 14 14 14 14 14 14 15 15 15 15 16 16 15 15 15 17 18 19 19 19 19 18 16 15 16 17 18 20 22
34 33 31 30 29 28 26 25 24 23 22 21 19 18 18 18 18 17 16 16 15 13 13 12 13 13 13 14 14 13 14 15 15 15 16 16 16 16 16 17 17 17 17 17 16 16 16 15 16 16 17 17 17 18 18 18 18 17 17 19 20 21 22
38 36 35 34 33 31 29 26 24 23 22 20 19 19 19 19 18 17 17 17 17 16 15 15 16 16 16 16 16 15 16 17 17 17 18 18 17 17 18 18 19 20 20 19 18 17 16 16 15 15 16 16 16 17 18 19 19 19 19 19 20 20 22
40 39 38 36 35 33 31 27 25 23 21 20 19 19 18 18 17 17 17 17 16 15 14 14 15 17 17 17 17 16 17 17 17 18 18 18 18 18 18 19 19 20 21 22 21 20 19 18 18 17 17 16 16 16 17 18 20 21 21 21 20 19 20
40 39 39 38 36 34 31 27 25 24 22 20 19 18 18 17 16 16 16 16 16 15 13 13 15 16 16 17 17 17 17 18 18 18 19 19 18 18 18 18 18 19 20 21 22 22 22 22 22 22 21 20 19 17 17 17 18 19 20 21 21 20 20
41 40 39 38 36 34 31 28 25 23 22 21 19 19 19 18 17 17 16 15 15 14 13 13 15 16 16 16 16 16 16 17 17 17 18 18 18 18 17 17 16 16 17 18 19 20 20 20 21 21 22 22 22 21 20 18 17 17 18 18 19 20 21
37 37 37 36 34 31 29 27 24 21 20 20 19 19 20 18 17 17 16 15 14 14 14 14 15 16 17 17 17 17 17 17 17 17 17 18 18 17 17 16 16 16 16 16 16 16 17 17 17 18 18 19 20 21 21 21 20 18 16 15 16 17 19
32 34 34 35 34 31 29 27 25 22 20 19 19 19 19 18 17 17 17 16 15 15 16 17 17 18 19 19 18 18 18 18 18 18 18 18 17 16 16 15 16 16 16 15 14 14 15 15 15 16 16 16 17 17 19 21 22 21 19 17 16 16 17
33 34 34 33 33 32 31 29 26 24 21 19 19 20 19 18 18 17 17 16 16 16 17 17 18 18 18 18 17 16 15 15 16 16 17 17 15 15 15 15 15 16 14 13 13 13 14 15 15 15 16 16 15 15 15 16 18 20 21 21 19 17 17
33 34 34 34 33 31 31 30 29 27 25 22 20 20 19 19 19 18 16 16 16 16 15 15 15 15 16 16 16 15 15 14 14 14 14 14 14 14 15 14 14 14 12 11 12 12 13 14 14 15 16 16 17 16 16 17 17 17 19 19 19 18 17
31 32 32 32 32 31 31 32 31 28 26 23 21 20 20 19 19 18 17 16 15 15 14 14 14 13 13 14 14 13 13 13 13 13 12 12 13 14 14 13 12 11 11 11 12 12 13 14 14 15 16 16 17 17 17 18 17 16 16 16 17 18 18
29 30 30 30 31 31 32 33 32 29 26 24 22 20 20 19 19 19 17 16 15 15 14 14 14 13 12 12 12 11 11 11 11 10 9 9 9 10 10 10 11 11 11 11 12 13 13 13 13 14 14 13 12 12 13 13 13 14 14 15 17 18 18
27 27 28 28 29 31 31 32 32 30 28 26 23 21 19 19 20 19 18 16 16 15 14 13 13 12 12 11 11 10 9 9 8 7 6 6 6 6 7 9 10 12 12 12 13 13 12 11 11 12 12 10 9 8 8 8 9 9 9 11 14 16 17
22 23 25 26 28 30 30 31 32 31 29 27 24 21 19 19 19 19 18 17 15 14 14 13 12 12 12 11 10 9 8 7 6 5 4 3 2 2 4 6 8 10 10 11 11 10 7 6 8 9 8 7 7 7 7 7 7 6 6 6 7 12 15
16 17 19 23 26 29 30 30 31 30 29 28 25 21 19 18 18 19 18 16 15 14 14 13 13 13 12 10 9 9 8 6 4 3 1 1 2 4 5 6 7 7 8 9 9 5 3 4 5 5 6 6 5 6 6 5 4 4 5 6 5 4 9
12 16 17 20 24 28 28 29 30 30 29 28 25 22 20 18 18 18 18 16 15 14 13 13 13 12 10 10 12 10 7 5 3 1 3 4 5 6 6 4 4 4 6 8 6 2 3 4 5 4 4 3 3 3 3 2 2 2 3 4 4 1 3
10 16 19 20 23 26 26 26 27 28 29 29 26 22 20 19 18 17 17 15 14 13 13 13 12 10 10 13 13 9 6 4 1 2 3 3 4 5 4 4 5 4 2 4 4 3 4 5 6 6 5 3 2 2 2 1 1 2 1 0 2 2 3
6 14 21 22 23 27 29 28 25 23 25 26 26 23 20 19 18 17 16 15 14 13 13 12 10 9 13 16 13 8 6 4 1 1 1 1 1 2 4 7 8 8 6 5 3 3 4 5 6 6 5 4 3 2 1 1 1 1 3 4 5 7 8
4 10 21 25 24 26 31 32 27 24 25 25 24 23 21 20 18 18 17 16 15 14 13 12 10 12 16 17 12 9 7 4 1 1 2 3 2 3 5 6 7 8 6 4 2 1 3 5 6 5 3 3 3 2 2 2 4 6 8 10 12 13 13
5 8 17 26 27 26 29 33 32 29 29 28 25 22 22 21 20 19 18 17 16 15 14 13 12 16 19 17 13 10 7 5 4 5 5 5 4 4 5 7 8 9 9 7 5 4 2 1 1 1 2 1 3 5 6 7 10 13 15 16 17 17 17
9 11 15 22 27 30 32 34 34 33 32 31 26 23 25 25 23 21 20 18 16 15 15 14 16 19 20 16 13 11 9 8 9 9 7 6 6 6 6 8 9 11 11 11 10 8 7 6 6 8 9 8 9 11 13 14 16 18 19 19 19 18 18
10 15 18 21 26 31 36 38 38 36 36 33 28 25 26 27 25 23 21 18 16 15 15 17 20 22 20 17 15 13 11 11 12 10 9 9 10 10 9 9 10 11 11 11 10 10 9 8 9 12 14 14 14 16 18 19 20 21 20 19 18 17 16
Wind_Direction
198 202 207 211 211 207 207 210 213 213 214 215 216 215 215 218 221 221 221 223 225 225 223 225 232 235 235 232 231 231 232 233 233 234 235 237 240 243 244 244 245 247 248 248 249 249 250 250 249 247 243 237 232 233 238 240 243 244 238 228 223 222 220
198 203 207 211 213 213 213 214 216 215 214 213 212 211 213 217 220 223 224 226 231 234 233 233 236 239 240 238 234 232 231 233 234 236 238 238 239 243 245 245 247 251 253 253 253 254 253 251 250 249 243 238 233 231 234 238 242 246 238 224 222 222 222
195 200 202 206 209 210 211 212 215 216 215 214 211 209 211 217 221 223 225 228 233 236 236 236 237 238 240 240 237 233 232 233 234 237 240 240 241 242 242 243 247 251 253 254 255 255 253 250 249 248 242 237 234 232 234 237 240 245 240 227 224 228 228
190 197 198 202 203 202 202 206 211 214 214 214 214 214 214 217 220 221 225 230 235 239 241 242 243 243 243 242 240 237 234 233 233 235 237 238 239 237 238 241 243 247 250 252 254 254 253 252 248 245 239 235 233 232 234 236 237 240 238 228 227 230 234
189 196 198 196 196 196 198 203 209 211 212 213 214 214 211 211 215 217 224 232 240 246 249 250 250 250 248 243 241 240 236 232 230 231 233 234 233 231 234 238 237 241 248 250 252 252 252 253 249 245 239 232 230 230 231 234 233 234 232 228 228 231 235
187 193 192 188 189 194 196 198 201 203 206 210 209 206 206 209 214 219 226 234 240 246 248 249 250 249 246 240 241 243 235 227 224 225 229 230 227 227 235 239 234 233 240 244 250 253 252 252 251 247 242 233 229 228 229 231 231 230 231 230 232 234 236
185 189 188 185 186 191 191 186 188 195 201 204 205 205 208 213 217 222 230 235 240 244 248 251 251 246 240 236 241 244 233 224 222 223 227 227 224 228 238 242 235 227 230 237 245 250 248 247 245 247 247 241 235 232 231 232 231 230 231 235 238 238 239
183 185 184 185 184 186 188 184 187 194 196 197 203 208 212 215 216 222 231 237 240 245 248 250 247 240 236 237 239 237 227 223 225 226 228 225 223 229 236 238 231 225 226 230 233 237 241 243 243 245 248 245 241 238 236 235 235 234 234 237 240 240 240
177 175 174 177 176 177 179 179 181 183 185 190 195 201 208 212 215 221 230 235 235 237 236 236 236 233 233 231 226 220 219 222 223 225 228 225 224 228 230 227 225 225 228 230 231 232 239 246 243 239 241 242 242 241 240 239 239 239 238 238 239 239 241
169 166 167 170 169 166 164 166 169 170 175 182 184 188 197 206 213 217 220 221 219 218 219 222 231 230 223 215 208 210 217 221 221 223 227 225 223 225 225 223 225 230 233 234 235 233 236 243 241 236 235 238 240 241 240 241 241 240 238 236 237 239 242
166 164 164 167 165 160 160 164 166 165 169 177 180 185 191 197 204 206 208 211 211 214 217 216 217 213 203 197 200 208 214 218 222 226 227 225 221 222 224 226 232 237 239 239 237 234 233 236 239 238 236 237 244 245 242 241 242 242 240 235 233 237 243
169 166 163 165 166 164 164 167 168 168 173 177 179 185 190 196 200 200 203 206 202 205 211 204 200 197 192 190 197 206 210 211 217 224 228 229 228 231 233 235 239 243 245 244 239 234 234 236 240 241 237 237 245 249 248 248 246 244 243 238 232 232 237
177 173 170 169 169 170 172 173 173 176 179 181 182 187 194 200 204 203 202 199 192 191 189 182 186 187 184 185 192 201 204 203 206 216 227 233 236 240 240 240 242 242 241 241 238 235 236 238 240 240 237 238 245 248 251 254 253 246 241 239 235 232 233
182 178 175 175 173 174 178 179 181 183 186 189 190 194 201 206 207 204 200 199 196 190 182 177 179 177 170 172 183 196 202 204 206 210 218 227 230 233 236 237 241 242 239 239 241 242 239 236 237 239 238 238 243 248 251 254 255 250 242 239 237 234 233
179 175 173 172 172 173 176 178 181 183 187 192 196 202 206 203 201 198 197 203 205 197 188 183 181 176 171 171 182 199 210 219 224 221 220 224 225 227 233 239 244 248 245 239 240 242 239 237 240 243 243 241 241 245 249 250 250 248 244 241 240 237 234
179 179 178 176 175 176 178 181 183 186 189 195 202 207 204 198 197 197 200 205 206 204 202 199 196 193 191 192 197 206 219 231 237 236 234 234 235 235 236 239 240 244 244 237 236 241 242 242 243 243 244 244 243 245 248 250 249 247 247 247 244 239 235
181 184 186 186 186 186 188 190 192 195 198 203 207 205 199 197 198 199 201 204 205 208 210 208 207 206 207 212 214 216 224 232 236 241 244 245 246 245 242 241 238 237 240 239 237 239 242 242 241 239 239 241 242 243 247 250 251 249 248 247 243 239 236
182 186 188 190 192 193 194 197 200 203 206 207 208 204 199 201 203 204 206 208 210 212 211 208 208 210 213 218 222 222 224 230 235 242 249 250 251 250 247 244 240 235 235 236 234 235 237 238 239 238 239 240 239 241 244 246 247 245 243 243 243 241 240
184 188 190 192 195 196 198 201 204 206 208 208 209 209 208 210 212 213 213 212 214 215 213 211 212 214 217 218 222 227 230 237 242 246 251 255 255 255 253 249 244 239 236 235 234 233 233 234 236 238 241 242 240 239 239 239 240 240 240 242 243 244 244
186 189 192 195 197 198 199 201 202 204 205 205 209 212 214 216 215 215 215 215 217 218 217 216 211 210 212 214 220 229 234 240 246 250 254 258 259 261 260 256 250 245 241 240 238 237 236 236 238 239 241 242 240 238 238 238 238 239 240 241 243 243 243
189 191 193 195 197 199 200 199 198 199 199 199 203 206 207 208 207 207 210 214 218 220 219 214 206 203 209 216 222 230 236 241 248 253 258 262 265 265 263 259 253 247 242 241 240 240 240 240 242 243 243 243 241 240 240 240 241 242 242 243 243 243 244
192 195 196 196 197 198 199 197 193 191 193 193 196 198 198 199 201 202 208 214 218 219 216 209 204 206 213 219 225 233 240 245 251 256 261 265 266 266 265 260 252 244 239 237 237 238 239 239 240 241 242 243 243 242 242 241 240 243 245 245 245 244 244
194 197 199 198 198 198 198 197 192 187 188 190 194 197 195 195 199 203 211 218 217 215 214 211 209 212 217 223 230 237 244 250 256 261 265 267 267 266 263 257 249 245 244 241 239 239 239 239 239 239 240 241 241 241 241 241 240 240 241 242 243 244 244
197 199 200 199 199 198 198 198 195 190 188 189 193 197 196 195 200 207 215 220 216 213 216 215 214 217 223 229 234 239 244 250 256 261 266 268 268 265 258 253 250 251 251 247 243 241 241 242 242 241 241 241 241 241 240 240 240 238 236 235 236 239 242
200 200 202 202 201 199 197 197 195 192 191 192 193 197 197 198 204 211 218 222 220 218 218 217 219 225 230 234 238 243 247 251 256 261 265 267 265 260 255 253 253 253 253 249 245 244 246 247 246 244 244 242 242 242 242 242 241 239 236 234 234 236 239
206 203 204 204 203 200 197 196 194 192 193 194 195 196 197 200 207 216 223 225 224 221 219 221 228 233 238 242 245 248 251 254 256 256 256 255 255 255 253 252 254 256 257 255 252 250 251 252 252 250 248 245 243 242 241 242 242 242 242 238 235 234 235
212 210 208 205 205 202 198 196 195 194 194 194 195 196 196 199 208 219 225 226 224 223 224 230 235 237 243 249 250 250 253 256 257 254 253 254 256 254 251 252 256 259 260 260 260 260 259 259 259 256 252 251 251 250 250 251 252 255 256 249 240 237 235
214 213 210 205 204 203 199 197 196 196 195 194 195 197 197 199 207 217 223 224 223 224 228 232 233 236 245 251 252 255 261 261 258 257 256 256 254 252 253 257 258 258 257 258 260 263 265 264 262 257 255 255 256 256 257 260 262 261 260 255 249 245 243
220 218 213 205 201 201 200 198 196 196 196 196 197 200 201 202 206 214 221 222 221 224 229 232 233 236 244 253 258 261 257 245 236 235 237 240 246 252 259 264 265 264 261 260 263 267 269 265 255 249 250 255 259 261 261 265 267 264 260 255 247 240 239
225 223 217 208 202 201 201 200 199 199 199 198 199 202 205 208 210 215 220 220 222 226 230 232 234 238 247 257 257 244 225 210 209 214 221 233 255 278 281 278 272 266 259 260 268 273 270 264 255 246 247 259 270 275 279 282 283 280 280 278 255 232 228
225 217 214 210 204 202 204 204 202 202 201 200 202 205 208 212 216 219 221 221 224 229 233 233 234 241 250 247 227 210 199 193 197 199 178 47 15 347 321 298 280 264 248 248 262 269 253 261 267 256 249 256 266 276 285 293 298 293 290 299 305 249 222
231 217 213 209 203 201 204 205 205 206 204 202 204 208 211 215 221 225 224 222 225 230 232 233 235 243 244 220 200 196 197 195 192 118 47 31 13 356 337 311 285 265 235 227 232 228 223 252 271 273 265 262 263 269 277 288 316 325 300 289 299 301 220
250 231 222 214 203 196 195 197 201 206 206 206 206 209 213 216 221 225 225 224 227 229 228 230 236 240 225 204 196 196 196 185 151 36 33 24 15 15 30 63 74 74 131 168 171 178 214 250 272 280 285 304 319 297 279 290 326 9 26 259 206 176 163
264 237 229 222 211 201 197 196 196 200 206 211 211 211 215 219 220 222 224 227 231 232 229 231 233 225 210 202 197 194 184 167 112 39 59 49 41 58 70 80 83 82 89 108 133 184 231 262 277 279 282 297 307 294 267 280 331 83 95 110 127 130 124
290 238 228 224 219 210 205 203 203 205 209 215 217 217 219 223 224 225 227 233 238 237 234 234 227 211 205 201 193 180 170 158 137 149 144 143 145 116 98 95 92 90 91 95 98 225 266 275 278 278 281 282 274 238 205 182 142 126 121 117 115 115 115
295 250 228 223 220 215 209 207 207 208 208 210 216 223 226 226 227 229 233 237 240 239 238 235 218 203 200 194 180 169 164 161 163 161 152 151 151 135 118 111 102 96 93 87 80 76 68 343 250 187 151 166 165 153 148 140 131 126 122 119 117 116 116
266 249 236 228 222 218 213 208 204 204 205 207 214 228 232 230 229 232 235 238 240 240 237 226 207 197 193 184 172 167 169 174 175 169 160 155 148 136 127 120 111 105 98 90 83 81 81 88 106 115 116 120 127 131 131 130 127 124 121 119 118 116 115
259 244 236 233 228 220 212 206 203 206 210 211 214 222 227 229 231 234 235 236 235 229 219 208 199 195 187 175 171 174 176 179 183 179 169 160 148 136 129 123 118 114 107 97 89 83 83 92 108 116 119 124 128 128 128 127 124 122 120 119 117 115 115
Height
1497 1498 1500 1501 1503 1505 1507 1508 1510 1511 1512 1514 1515 1517 1519 1521 1522 1523 1525 1526 1527 1529 1531 1532 1533 1534 1535 1536 1537 1539 1540 1541 1543 1544 1545 1546 1547 1549 1549 1550 1550 1551 1551 1551 1552 1553 1553 1554 1554 1554 1554 1555 1556 1556 1557 1558 1558 1559 1560 1560 1561 1562 1562
1495 1497 1499 1500 1502 1504 1506 1507 1509 1510 1511 1513 1514 1516 1517 1519 1520 1521 1523 1524 1526 1527 1529 1531 1532 1532 1533 1534 1535 1537 1538 1539 1541 1542 1543 1544 1546 1547 1547 1548 1548 1548 1549 1549 1550 1550 1551 1551 1551 1552 1552 1553 1553 1554 1555 1556 1557 1557 1558 1558 1559 1560 1561
1494 1496 1497 1500 1501 1503 1505 1507 1508 1510 1511 1512 1513 1515 1516 1517 1518 1520 1521 1523 1524 1526 1527 1529 1530 1530 1531 1532 1533 1535 1536 1537 1538 1540 1541 1542 1544 1544 1545 1545 1546 1546 1546 1547 1547 1548 1548 1549 1549 1549 1550 1550 1551 1552 1553 1554 1555 1556 1556 1557 1557 1558 1559
1494 1495 1497 1500 1501 1503 1505 1506 1508 1509 1510 1512 1513 1514 1515 1516 1517 1519 1520 1522 1523 1525 1526 1527 1528 1529 1530 1530 1531 1532 1533 1535 1536 1537 1539 1540 1541 1542 1543 1543 1544 1544 1544 1545 1546 1546 1546 1547 1547 1547 1548 1548 1549 1550 1551 1552 1553 1553 1554 1555 1555 1556 1557
1494 1495 1497 1499 1500 1503 1504 1505 1507 1508 1509 1511 1512 1513 1514 1515 1517 1518 1520 1521 1523 1524 1525 1526 1526 1527 1528 1528 1529 1530 1531 1533 1534 1535 1537 1538 1539 1540 1541 1542 1542 1542 1543 1543 1544 1544 1545 1545 1546 1546 1546 1546 1547 1548 1549 1550 1551 1551 1552 1553 1553 1554 1555
1493 1494 1496 1498 1500 1502 1503 1504 1506 1506 1508 1509 1510 1512 1513 1514 1516 1517 1519 1520 1521 1523 1523 1524 1524 1525 1526 1527 1527 1528 1529 1530 1532 1533 1535 1536 1537 1538 1538 1540 1540 1541 1541 1542 1542 1543 1543 1544 1544 1545 1545 1545 1546 1547 1547 1548 1549 1549 1550 1550 1551 1552 1553
1492 1494 1496 1498 1499 1501 1502 1503 1505 1506 1507 1508 1509 1511 1512 1513 1515 1517 1519 1519 1520 1521 1521 1522 1522 1523 1524 1525 1526 1526 1527 1528 1530 1531 1533 1533 1534 1535 1537 1538 1538 1539 1539 1540 1540 1541 1542 1543 1543 1544 1544 1544 1545 1545 1546 1546 1547 1547 1548 1548 1549 1550 1551
1492 1493 1495 1497 1498 1500 1501 1503 1504 1505 1506 1507 1508 1509 1511 1512 1514 1516 1517 1518 1519 1520 1520 1520 1521 1521 1522 1523 1524 1525 1525 1527 1528 1529 1531 1531 1532 1533 1534 1536 1536 1537 1537 1536 1537 1538 1540 1541 1542 1542 1543 1543 1543 1544 1544 1544 1545 1545 1546 1546 1547 1548 1548
1492 1494 1495 1497 1498 1499 1501 1502 1503 1504 1505 1506 1507 1508 1510 1512 1513 1515 1516 1517 1518 1518 1518 1518 1519 1519 1520 1521 1522 1523 1524 1525 1526 1527 1528 1529 1530 1531 1532 1533 1534 1534 1534 1534 1535 1536 1538 1539 1540 1540 1541 1541 1542 1542 1542 1543 1543 1544 1544 1544 1545 1546 1546
1492 1494 1495 1496 1497 1498 1500 1501 1502 1503 1503 1505 1506 1507 1509 1511 1512 1514 1515 1516 1516 1517 1517 1517 1517 1518 1518 1519 1520 1521 1523 1524 1525 1526 1527 1527 1529 1530 1531 1532 1532 1532 1533 1534 1534 1534 1535 1537 1538 1539 1539 1539 1540 1541 1541 1541 1541 1542 1542 1543 1543 1544 1544
1491 1493 1494 1495 1496 1497 1498 1499 1501 1502 1502 1503 1504 1506 1508 1509 1511 1512 1513 1515 1515 1515 1516 1516 1516 1517 1517 1518 1519 1520 1521 1522 1523 1525 1526 1527 1528 1528 1529 1530 1530 1531 1532 1533 1533 1532 1532 1534 1536 1537 1537 1538 1539 1539 1539 1540 1540 1540 1541 1541 1541 1542 1542
1490 1492 1493 1494 1495 1496 1498 1499 1500 1501 1502 1503 1503 1505 1506 1508 1509 1511 1512 1513 1514 1515 1515 1515 1516 1516 1517 1517 1518 1519 1520 1521 1522 1523 1524 1526 1526 1527 1527 1528 1529 1530 1531 1532 1532 1531 1529 1531 1534 1535 1536 1536 1537 1538 1538 1538 1539 1539 1539 1539 1540 1540 1540
1489 1491 1492 1494 1495 1496 1497 1498 1499 1500 1501 1502 1503 1504 1505 1506 1508 1509 1510 1511 1512 1513 1514 1514 1515 1516 1516 1517 1517 1519 1519 1520 1521 1522 1522 1523 1524 1524 1525 1526 1527 1529 1530 1531 1530 1528 1528 1529 1532 1534 1534 1535 1535 1536 1537 1537 1537 1538 1538 1538 1538 1538 1538
1487 1489 1491 1492 1494 1495 1496 1497 1499 1499 1500 1501 1502 1503 1504 1505 1507 1507 1509 1510 1511 1512 1513 1513 1514 1515 1516 1516 1517 1518 1518 1518 1519 1520 1520 1521 1521 1522 1523 1524 1526 1527 1528 1528 1527 1527 1528 1529 1531 1533 1533 1533 1534 1534 1535 1535 1535 1536 1536 1536 1536 1536 1536
1485 1487 1489 1491 1492 1494 1495 1497 1498 1499 1500 1501 1501 1502 1503 1504 1505 1506 1508 1509 1509 1511 1511 1512 1513 1514 1515 1515 1516 1516 1517 1517 1518 1518 1519 1520 1521 1522 1522 1523 1523 1524 1524 1525 1525 1526 1528 1529 1530 1531 1531 1531 1532 1532 1533 1533 1533 1534 1534 1534 1534 1534 1534
1483 1485 1487 1489 1491 1492 1494 1495 1496 1498 1499 1500 1501 1502 1502 1503 1504 1505 1507 1508 1509 1510 1510 1511 1512 1513 1514 1515 1515 1516 1516 1517 1517 1518 1518 1519 1520 1521 1521 1521 1522 1522 1523 1524 1525 1526 1526 1528 1528 1528 1529 1530 1530 1530 1530 1531 1531 1531 1532 1532 1532 1532 1532
1481 1483 1485 1487 1489 1491 1493 1494 1496 1497 1498 1499 1500 1501 1501 1502 1503 1504 1505 1506 1508 1509 1510 1511 1512 1513 1513 1514 1515 1516 1516 1517 1517 1517 1518 1519 1520 1520 1521 1521 1521 1522 1522 1523 1524 1525 1525 1525 1526 1526 1527 1528 1528 1528 1528 1529 1529 1529 1530 1530 1529 1530 1530
1478 1481 1483 1485 1487 1489 1491 1493 1494 1495 1497 1498 1499 1500 1501 1502 1502 1504 1505 1506 1507 1509 1510 1511 1512 1513 1514 1514 1515 1516 1516 1517 1517 1517 1518 1518 1519 1519 1520 1520 1520 1521 1521 1522 1522 1523 1523 1524 1524 1524 1525 1526 1526 1526 1526 1527 1527 1527 1527 1527 1527 1528 1528
1475 1478 1480 1482 1484 1486 1488 1490 1491 1493 1495 1497 1498 1499 1501 1502 1503 1504 1505 1506 1507 1508 1509 1511 1512 1513 1514 1514 1515 1515 1516 1516 1516 1517 1517 1517 1518 1518 1518 1518 1518 1519 1520 1520 1520 1521 1521 1522 1522 1522 1523 1523 1524 1524 1524 1524 1524 1524 1525 1525 1525 1526 1526
1473 1475 1477 1479 1481 1483 1485 1488 1490 1492 1494 1496 1498 1499 1501 1503 1504 1505 1506 1507 1508 1508 1509 1510 1511 1512 1513 1514 1515 1515 1515 1516 1516 1516 1516 1516 1516 1516 1516 1516 1516 1517 1518 1518 1519 1519 1520 1520 1520 1520 1520 1521 1521 1522 1522 1522 1522 1522 1522 1522 1523 1523 1523
1471 1473 1475 1477 1479 1482 1485 1487 1489 1491 1493 1495 1497 1499 1501 1503 1504 1506 1507 1507 1508 1508 1509 1509 1510 1511 1512 1513 1514 1514 1514 1515 1515 1515 1515 1515 1516 1515 1515 1514 1515 1515 1516 1516 1517 1517 1517 1518 1518 1518 1518 1519 1519 1520 1520 1520 1520 1520 1520 1520 1520 1521 1521
1469 1471 1472 1473 1477 1480 1483 1485 1487 1489 1492 1495 1497 1499 1501 1503 1505 1506 1507 1508 1508 1509 1509 1509 1510 1511 1512 1512 1513 1514 1514 1514 1515 1515 1515 1515 1515 1515 1514 1514 1514 1514 1514 1514 1515 1515 1515 1515 1515 1515 1515 1516 1517 1517 1518 1518 1518 1518 1518 1518 1518 1518 1518
1466 1469 1471 1474 1477 1480 1483 1485 1487 1489 1492 1494 1497 1499 1501 1503 1505 1506 1507 1508 1508 1508 1509 1509 1510 1510 1511 1512 1512 1513 1513 1514 1514 1514 1515 1514 1514 1514 1514 1513 1513 1513 1513 1513 1513 1513 1512 1512 1513 1513 1513 1513 1514 1514 1515 1515 1515 1515 1515 1515 1515 1515 1515
1466 1469 1472 1475 1478 1480 1483 1486 1488 1490 1492 1494 1496 1498 1500 1503 1504 1506 1507 1507 1507 1508 1508 1508 1509 1510 1510 1511 1512 1512 1512 1513 1513 1513 1513 1513 1513 1513 1513 1513 1513 1512 1512 1512 1511 1511 1511 1510 1510 1511 1511 1511 1511 1512 1512 1512 1512 1512 1513 1513 1513 1513 1513
1469 1470 1472 1474 1476 1478 1482 1485 1487 1490 1492 1493 1495 1497 1499 1501 1503 1505 1506 1506 1507 1507 1507 1508 1509 1509 1510 1510 1511 1511 1511 1511 1511 1511 1511 1511 1512 1512 1512 1512 1512 1511 1511 1511 1510 1510 1509 1509 1509 1509 1508 1509 1509 1509 1509 1509 1509 1509 1509 1510 1510 1510 1510
1471 1471 1472 1474 1476 1478 1480 1483 1485 1487 1489 1491 1493 1495 1498 1500 1502 1503 1504 1505 1506 1506 1507 1508 1508 1509 1510 1510 1510 1511 1510 1510 1510 1510 1510 1510 1510 1511 1511 1511 1511 1510 1510 1510 1509 1509 1508 1508 1507 1507 1506 1506 1507 1507 1507 1507 1507 1507 1507 1507 1508 1508 1508
1473 1473 1474 1476 1478 1479 1481 1482 1484 1485 1487 1489 1491 1493 1495 1498 1500 1502 1503 1504 1504 1505 1506 1507 1508 1509 1509 1510 1510 1510 1510 1509 1509 1509 1509 1509 1509 1509 1509 1509 1509 1509 1509 1509 1508 1508 1507 1506 1506 1505 1504 1504 1504 1504 1504 1504 1504 1504 1504 1504 1505 1505 1506
1473 1474 1476 1477 1479 1480 1482 1483 1484 1485 1487 1488 1490 1492 1493 1495 1498 1499 1501 1501 1502 1503 1504 1505 1506 1507 1508 1509 1509 1510 1509 1509 1509 1508 1508 1508 1507 1507 1508 1508 1508 1508 1508 1508 1507 1506 1506 1505 1504 1503 1503 1502 1502 1502 1502 1502 1502 1502 1502 1502 1502 1502 1503
1472 1474 1476 1478 1480 1481 1483 1484 1485 1485 1486 1487 1489 1490 1492 1494 1495 1497 1498 1499 1500 1501 1503 1504 1505 1506 1507 1508 1508 1509 1508 1508 1508 1507 1507 1506 1506 1506 1506 1506 1506 1506 1506 1506 1506 1505 1504 1503 1502 1502 1501 1501 1501 1500 1500 1500 1500 1500 1500 1499 1499 1500 1500
1472 1475 1476 1478 1480 1482 1484 1486 1486 1485 1486 1487 1488 1489 1491 1493 1494 1496 1496 1498 1499 1500 1501 1502 1504 1505 1505 1506 1507 1507 1507 1507 1507 1507 1506 1506 1505 1505 1504 1503 1503 1503 1504 1504 1504 1504 1504 1503 1502 1501 1500 1500 1500 1499 1499 1499 1499 1498 1498 1497 1497 1497 1498
1472 1474 1476 1478 1480 1482 1484 1486 1487 1487 1488 1488 1489 1490 1491 1493 1494 1495 1496 1497 1498 1499 1500 1502 1503 1504 1504 1505 1506 1506 1506 1506 1506 1506 1506 1505 1505 1504 1502 1502 1501 1501 1501 1502 1503 1503 1504 1503 1502 1501 1500 1500 1499 1498 1498 1498 1497 1497 1497 1497 1496 1496 1496
1472 1473 1475 1477 1479 1481 1483 1486 1488 1489 1490 1490 1491 1491 1492 1493 1494 1495 1495 1496 1497 1498 1500 1501 1502 1503 1504 1504 1504 1505 1505 1506 1506 1506 1505 1505 1504 1503 1502 1500 1499 1499 1499 1500 1502 1503 1503 1504 1503 1502 1501 1500 1498 1498 1497 1497 1497 1497 1496 1496 1496 1496 1496
1472 1472 1474 1475 1477 1480 1483 1485 1488 1490 1490 1491 1491 1492 1493 1493 1494 1495 1496 1496 1496 1498 1499 1500 1501 1502 1503 1503 1503 1503 1504 1505 1506 1506 1506 1505 1505 1504 1502 1501 1499 1499 1499 1499 1501 1502 1503 1503 1503 1502 1501 1500 1499 1498 1497 1497 1497 1496 1496 1496 1496 1495 1495
1472 1472 1473 1473 1475 1477 1479 1481 1486 1491 1494 1494 1492 1493 1494 1494 1494 1495 1495 1495 1496 1497 1498 1499 1500 1501 1502 1502 1503 1503 1503 1504 1505 1506 1506 1506 1505 1505 1503 1502 1501 1500 1500 1500 1500 1501 1502 1503 1503 1502 1501 1500 1499 1498 1497 1497 1496 1496 1496 1496 1496 1495 1495
1471 1471 1471 1471 1473 1475 1476 1478 1481 1487 1494 1496 1495 1493 1493 1494 1494 1494 1494 1495 1496 1496 1497 1499 1499 1500 1501 1501 1502 1502 1503 1503 1504 1505 1506 1506 1506 1505 1504 1503 1502 1501 1500 1501 1501 1501 1501 1502 1502 1502 1501 1500 1499 1498 1497 1497 1496 1496 1496 1496 1496 1497 1497
1470 1470 1469 1469 1470 1472 1474 1476 1477 1479 1484 1490 1494 1494 1493 1493 1493 1494 1493 1494 1495 1495 1497 1498 1498 1499 1500 1500 1501 1502 1502 1502 1503 1504 1505 1506 1506 1505 1504 1503 1502 1501 1501 1501 1501 1501 1501 1501 1501 1502 1501 1500 1500 1498 1498 1497 1497 1497 1497 1498 1498 1499 1499
1468 1468 1467 1466 1466 1467 1469 1471 1474 1476 1478 1481 1486 1489 1491 1491 1492 1492 1492 1493 1494 1495 1496 1496 1497 1498 1498 1499 1500 1501 1501 1502 1503 1504 1505 1505 1505 1505 1504 1503 1502 1502 1502 1501 1501 1501 1501 1501 1502 1502 1501 1501 1501 1500 1499 1499 1499 1499 1499 1499 1500 1501 1501
1466 1465 1465 1464 1463 1463 1464 1466 1468 1470 1473 1475 1478 1481 1485 1489 1491 1491 1492 1492 1493 1494 1494 1495 1496 1497 1498 1499 1500 1501 1502 1502 1503 1503 1505 1505 1505 1504 1504 1503 1503 1502 1502 1502 1502 1502 1502 1502 1503 1503 1503 1503 1503 1502 1501 1501 1501 1501 1501 1502 1502 1503 1503